TimeMST,TemperatureF,Dew PointF,Humidity,Sea Level PressureIn,VisibilityMPH,Wind Direction,Wind SpeedMPH,Gust SpeedMPH,PrecipitationIn,Events,Conditions,WindDirDegrees,DateUTC
12:15 AM,51.4,21.0,30,30.02,10.0,SSW,3.5,-,N/A,,Clear,210,2013-03-07 07:15:00
12:35 AM,52.7,22.1,30,30.02,10.0,South,4.6,-,N/A,,Clear,190,2013-03-07 07:35:00
12:55 AM,47.1,19.4,33,30.02,10.0,Calm,Calm,-,N/A,,Clear,0,2013-03-07 07:55:00
1:15 AM,46.6,19.8,34,30.02,10.0,WSW,5.8,-,N/A,,Clear,250,2013-03-07 08:15:00
1:35 AM,43.9,18.9,37,30.02,10.0,NW,5.8,-,N/A,,Clear,310,2013-03-07 08:35:00
1:55 AM,45.5,20.1,36,30.02,10.0,WNW,5.8,-,N/A,,Clear,300,2013-03-07 08:55:00
2:15 AM,45.5,20.1,36,30.01,10.0,Calm,Calm,-,N/A,,Clear,0,2013-03-07 09:15:00
2:35 AM,45.0,20.5,38,30.00,10.0,Calm,Calm,-,N/A,,Clear,0,2013-03-07 09:35:00
2:55 AM,42.8,19.6,40,30.00,10.0,Calm,Calm,-,N/A,,Clear,0,2013-03-07 09:55:00
3:15 AM,42.4,19.2,39,30.00,10.0,Calm,Calm,-,N/A,,Clear,0,2013-03-07 10:15:00
3:35 AM,41.0,19.2,42,30.00,10.0,Calm,Calm,-,N/A,,Clear,0,2013-03-07 10:35:00
3:55 AM,40.1,18.3,42,30.00,10.0,Calm,Calm,-,N/A,,Clear,0,2013-03-07 10:55:00
4:15 AM,48.6,22.6,36,30.00,10.0,ESE,3.5,-,N/A,,Clear,110,2013-03-07 11:15:00
4:35 AM,46.2,21.2,37,30.00,10.0,SE,3.5,-,N/A,,Clear,140,2013-03-07 11:35:00
4:55 AM,45.9,21.4,38,30.01,10.0,SE,3.5,-,N/A,,Clear,130,2013-03-07 11:55:00
5:15 AM,45.7,21.7,39,30.01,10.0,Calm,Calm,-,N/A,,Clear,0,2013-03-07 12:15:00
5:35 AM,43.9,21.4,41,30.02,10.0,Calm,Calm,-,N/A,,Clear,0,2013-03-07 12:35:00
5:55 AM,44.6,21.9,41,30.03,10.0,Calm,Calm,-,N/A,,Clear,0,2013-03-07 12:55:00
6:15 AM,40.3,19.0,43,30.04,10.0,Calm,Calm,-,N/A,,Clear,0,2013-03-07 13:15:00
6:35 AM,39.6,19.6,45,30.04,10.0,Calm,Calm,-,N/A,,Clear,0,2013-03-07 13:35:00
6:55 AM,43.7,20.8,40,30.05,10.0,West,5.8,-,N/A,,Clear,270,2013-03-07 13:55:00
7:15 AM,44.2,21.4,40,30.05,10.0,WNW,3.5,-,N/A,,Clear,290,2013-03-07 14:15:00
7:35 AM,49.3,22.5,35,30.06,10.0,WNW,4.6,-,N/A,,Clear,290,2013-03-07 14:35:00
7:55 AM,53.1,23.2,31,30.07,10.0,Calm,Calm,-,N/A,,Clear,0,2013-03-07 14:55:00
8:15 AM,56.5,23.7,28,30.08,10.0,Calm,Calm,-,N/A,,Clear,0,2013-03-07 15:15:00
8:35 AM,59.4,24.6,26,30.08,10.0,East,3.5,-,N/A,,Clear,80,2013-03-07 15:35:00
8:55 AM,60.8,24.3,25,30.08,10.0,East,4.6,-,N/A,,Clear,90,2013-03-07 15:55:00
9:15 AM,61.3,24.3,24,30.08,10.0,East,3.5,-,N/A,,Clear,100,2013-03-07 16:15:00
9:35 AM,62.6,23.9,23,30.08,10.0,Calm,Calm,-,N/A,,Clear,0,2013-03-07 16:35:00
9:55 AM,64.4,23.2,21,30.08,10.0,Calm,Calm,-,N/A,,Clear,0,2013-03-07 16:55:00
10:15 AM,66.0,23.2,20,30.07,10.0,Calm,Calm,-,N/A,,Clear,0,2013-03-07 17:15:00
10:35 AM,66.9,23.0,19,30.07,10.0,South,3.5,-,N/A,,Clear,170,2013-03-07 17:35:00
10:55 AM,68.4,23.0,18,30.06,10.0,South,3.5,-,N/A,,Clear,180,2013-03-07 17:55:00
11:15 AM,69.6,22.5,17,30.06,10.0,South,4.6,-,N/A,,Clear,190,2013-03-07 18:15:00
11:35 AM,72.5,21.0,14,30.05,10.0,WSW,8.1,18.4,N/A,,Clear,240,2013-03-07 18:35:00
11:55 AM,71.4,20.5,15,30.04,10.0,SSW,12.7,-,N/A,,Clear,210,2013-03-07 18:55:00
12:15 PM,72.1,19.8,14,30.03,10.0,SW,9.2,21.9,N/A,,Clear,230,2013-03-07 19:15:00
12:35 PM,73.4,19.8,13,30.02,10.0,SW,10.4,23.0,N/A,,Clear,230,2013-03-07 19:35:00
12:55 PM,74.1,17.8,12,30.01,10.0,South,9.2,-,N/A,,Clear,190,2013-03-07 19:55:00
1:15 PM,74.5,12.9,10,30.00,10.0,SW,15.0,21.9,N/A,,Clear,220,2013-03-07 20:15:00
1:35 PM,75.0,14.2,10,29.99,10.0,SW,16.1,21.9,N/A,,Clear,230,2013-03-07 20:35:00
1:55 PM,74.3,15.1,11,29.98,10.0,SSW,12.7,21.9,N/A,,Clear,210,2013-03-07 20:55:00
2:15 PM,74.5,17.1,11,29.98,10.0,WSW,11.5,17.3,N/A,,Clear,250,2013-03-07 21:15:00
2:35 PM,73.2,16.7,12,29.97,10.0,SW,17.3,21.9,N/A,,Clear,220,2013-03-07 21:35:00
2:55 PM,73.9,15.6,11,29.98,10.0,SW,17.3,24.2,N/A,,Clear,230,2013-03-07 21:55:00
3:15 PM,73.8,17.6,12,29.97,10.0,WSW,18.4,24.2,N/A,,Clear,240,2013-03-07 22:15:00
3:35 PM,73.4,17.4,12,29.97,10.0,SW,19.6,27.6,N/A,,Clear,230,2013-03-07 22:35:00
3:55 PM,73.8,18.7,13,29.96,10.0,SW,17.3,27.6,N/A,,Clear,220,2013-03-07 22:55:00
4:15 PM,72.1,19.2,14,29.96,10.0,SW,17.3,-,N/A,,Clear,230,2013-03-07 23:15:00
4:35 PM,71.6,19.2,14,29.96,10.0,SSW,17.3,20.7,N/A,,Clear,210,2013-03-07 23:35:00
4:55 PM,71.1,18.7,14,29.96,10.0,SW,17.3,23.0,N/A,,Clear,220,2013-03-07 23:55:00
6:35 PM,65.7,20.1,18,29.98,10.0,SW,10.4,-,N/A,,Clear,220,2013-03-08 01:35:00
6:55 PM,64.8,19.8,18,29.98,10.0,SW,11.5,-,N/A,,Clear,230,2013-03-08 01:55:00
7:15 PM,63.9,19.9,19,29.98,10.0,SW,10.4,-,N/A,,Clear,230,2013-03-08 02:15:00
7:35 PM,63.3,20.3,19,29.99,10.0,SW,10.4,-,N/A,,Clear,230,2013-03-08 02:35:00
7:55 PM,62.6,20.8,20,29.99,10.0,WSW,11.5,-,N/A,,Clear,240,2013-03-08 02:55:00
8:15 PM,62.8,21.2,20,29.99,10.0,WSW,11.5,-,N/A,,Clear,240,2013-03-08 03:15:00
8:35 PM,62.6,21.2,20,29.99,10.0,WSW,10.4,-,N/A,,Clear,240,2013-03-08 03:35:00
8:55 PM,61.3,21.0,21,29.99,10.0,West,9.2,-,N/A,,Clear,270,2013-03-08 03:55:00
9:15 PM,59.9,21.0,22,30.00,10.0,WSW,9.2,-,N/A,,Clear,250,2013-03-08 04:15:00
9:35 PM,59.0,20.5,23,30.00,10.0,WSW,8.1,-,N/A,,Clear,250,2013-03-08 04:35:00
9:55 PM,57.9,20.3,23,30.01,10.0,West,8.1,-,N/A,,Clear,270,2013-03-08 04:55:00
10:15 PM,57.6,20.1,23,30.02,10.0,WSW,8.1,-,N/A,,Clear,250,2013-03-08 05:15:00
10:35 PM,59.2,20.1,22,30.03,10.0,WSW,9.2,-,N/A,,Scattered Clouds,250,2013-03-08 05:35:00
10:55 PM,58.8,20.1,22,30.03,10.0,West,8.1,-,N/A,,Mostly Cloudy,270,2013-03-08 05:55:00
11:15 PM,57.6,20.1,23,30.03,10.0,West,8.1,-,N/A,,Mostly Cloudy,280,2013-03-08 06:15:00
11:35 PM,57.4,20.3,24,30.03,10.0,WSW,5.8,-,N/A,,Overcast,250,2013-03-08 06:35:00
11:55 PM,56.8,20.5,24,30.03,10.0,West,4.6,-,N/A,,Mostly Cloudy,260,2013-03-08 06:55:00